| time (UTC) | temp F | wind direction | speed MPH | gust MPH | rain 1hr in | rain 24hr in | rain mn in | humidity % | barometer mb |
| 20260506001624 | 62 | 188 | 9.0 | 17.0 | 0.00 | 0.00 | 0.00 | 62 | 1010.2 |
| 20260506001121 | 61 | 160 | 6.0 | 18.0 | 0.00 | 0.00 | 0.00 | 62 | 1010.1 |
| 20260506000621 | 62 | 169 | 5.0 | 18.0 | 0.00 | 0.00 | 0.00 | 62 | 1010.0 |
| 20260506000120 | 62 | 184 | 9.0 | 18.0 | 0.00 | 0.00 | 0.00 | 61 | 1010.0 |
| 20260505235619 | 62 | 201 | 6.0 | 17.0 | 0.00 | 0.00 | 0.00 | 60 | 1009.7 |
| 20260505235112 | 62 | 173 | 9.0 | 15.0 | 0.00 | 0.00 | 0.00 | 60 | 1009.8 |
| 20260505234609 | 62 | 145 | 8.0 | 16.0 | 0.00 | 0.00 | 0.00 | 60 | 1009.5 |
| 20260505234108 | 63 | 181 | 9.0 | 16.0 | 0.00 | 0.00 | 0.00 | 59 | 1009.4 |
| 20260505233608 | 63 | 152 | 5.0 | 18.0 | 0.00 | 0.00 | 0.00 | 58 | 1009.3 |
| 20260505233108 | 64 | 200 | 4.0 | 18.0 | 0.00 | 0.00 | 0.00 | 58 | 1009.2 |
| 20260505232608 | 63 | 181 | 12.0 | 14.0 | 0.00 | 0.00 | 0.00 | 58 | 1009.1 |
| 20260505231604 | 64 | 240 | 4.0 | 21.0 | 0.00 | 0.00 | 0.00 | 57 | 1009.1 |
| 20260505231101 | 65 | 189 | 9.0 | 21.0 | 0.00 | 0.00 | 0.00 | 56 | 1009.0 |
| 20260505230559 | 65 | 187 | 7.0 | 17.0 | 0.00 | 0.00 | 0.00 | 56 | 1008.9 |
| 20260505230107 | 65 | 200 | 6.0 | 17.0 | 0.00 | 0.00 | 0.00 | 54 | 1008.9 |
| 20260505225055 | 66 | 186 | 7.0 | 18.0 | 0.00 | 0.00 | 0.00 | 53 | 1008.7 |
| 20260505224553 | 66 | 219 | 4.0 | 14.0 | 0.00 | 0.00 | 0.00 | 53 | 1008.6 |
| 20260505224050 | 67 | 166 | 5.0 | 18.0 | 0.00 | 0.00 | 0.00 | 52 | 1008.5 |
| 20260505223049 | 67 | 177 | 9.0 | 17.0 | 0.00 | 0.00 | 0.00 | 51 | 1008.6 |
| 20260505222549 | 68 | 145 | 9.0 | 20.0 | 0.00 | 0.00 | 0.00 | 51 | 1008.7 |
| 20260505222044 | 69 | 150 | 6.0 | 20.0 | 0.00 | 0.00 | 0.00 | 50 | 1008.5 |
| 20260505221544 | 69 | 158 | 12.0 | 18.0 | 0.00 | 0.00 | 0.00 | 48 | 1008.3 |
| 20260505220533 | 70 | 197 | 8.0 | 15.0 | 0.00 | 0.00 | 0.00 | 48 | 1008.0 |
| 20260505215527 | 70 | 166 | 8.0 | 19.0 | 0.00 | 0.00 | 0.00 | 46 | 1007.9 |
| 20260505215023 | 70 | 175 | 11.0 | 26.0 | 0.00 | 0.00 | 0.00 | 46 | 1007.8 |
| 20260505214521 | 70 | 207 | 8.0 | 26.0 | 0.00 | 0.00 | 0.00 | 45 | 1007.6 |
| 20260505214020 | 71 | 187 | 8.0 | 26.0 | 0.00 | 0.00 | 0.00 | 45 | 1007.9 |
| 20260505212014 | 73 | 208 | 4.0 | 20.0 | 0.00 | 0.00 | 0.00 | 44 | 1007.3 |
| 20260505211514 | 73 | 163 | 9.0 | 20.0 | 0.00 | 0.00 | 0.00 | 40 | 1007.4 |
| 20260505210512 | 73 | 193 | 4.0 | 24.0 | 0.00 | 0.00 | 0.00 | 42 | 1007.6 |
| 20260505210013 | 73 | 176 | 10.0 | 24.0 | 0.00 | 0.00 | 0.00 | 40 | 1007.7 |
| 20260505205513 | 73 | 165 | 11.0 | 21.0 | 0.00 | 0.00 | 0.00 | 41 | 1007.4 |
| 20260505205011 | 73 | 180 | 13.0 | 22.0 | 0.00 | 0.00 | 0.00 | 40 | 1007.4 |
| 20260505204008 | 73 | 257 | 7.0 | 20.0 | 0.00 | 0.00 | 0.00 | 40 | 1007.6 |
| 20260505203507 | 74 | 192 | 7.0 | 21.0 | 0.00 | 0.00 | 0.00 | 39 | 1007.7 |
| 20260505203008 | 74 | 155 | 10.0 | 21.0 | 0.00 | 0.00 | 0.00 | 40 | 1007.7 |
| 20260505202506 | 75 | 202 | 4.0 | 19.0 | 0.00 | 0.00 | 0.00 | 41 | 1007.4 |
| 20260505202004 | 75 | 190 | 11.0 | 27.0 | 0.00 | 0.00 | 0.00 | 39 | 1007.5 |
| 20260505201002 | 75 | 186 | 8.0 | 19.0 | 0.00 | 0.00 | 0.00 | 37 | 1007.6 |
| 20260505200503 | 75 | 187 | 6.0 | 29.0 | 0.00 | 0.00 | 0.00 | 39 | 1007.5 |
| 20260505200002 | 74 | 260 | 4.0 | 29.0 | 0.00 | 0.00 | 0.00 | 39 | 1007.7 |
| 20260505195502 | 74 | 192 | 6.0 | 21.0 | 0.00 | 0.00 | 0.00 | 38 | 1007.8 |
| 20260505195002 | 74 | 199 | 3.0 | 20.0 | 0.00 | 0.00 | 0.00 | 40 | 1007.5 |
| 20260505194502 | 75 | 213 | 10.0 | 20.0 | 0.00 | 0.00 | 0.00 | 38 | 1008.1 |
| 20260505193954 | 75 | 171 | 11.0 | 19.0 | 0.00 | 0.00 | 0.00 | 38 | 1008.1 |
| 20260505193446 | 76 | 239 | 9.0 | 21.0 | 0.00 | 0.00 | 0.00 | 39 | 1008.1 |
| 20260505192945 | 75 | 180 | 12.0 | 22.0 | 0.00 | 0.00 | 0.00 | 37 | 1008.0 |
| 20260505192445 | 75 | 155 | 6.0 | 22.0 | 0.00 | 0.00 | 0.00 | 38 | 1007.8 |
| 20260505190944 | 75 | 220 | 7.0 | 27.0 | 0.00 | 0.00 | 0.00 | 38 | 1008.2 |
| 20260505190443 | 75 | 220 | 8.0 | 30.0 | 0.00 | 0.00 | 0.00 | 36 | 1008.3 |
| 20260505185941 | 75 | 187 | 9.0 | 30.0 | 0.00 | 0.00 | 0.00 | 36 | 1008.5 |
| 20260505185439 | 75 | 236 | 10.0 | 25.0 | 0.00 | 0.00 | 0.00 | 36 | 1008.6 |
| 20260505184939 | 75 | 218 | 12.0 | 31.0 | 0.00 | 0.00 | 0.00 | 35 | 1008.6 |
| 20260505184438 | 75 | 198 | 7.0 | 31.0 | 0.00 | 0.00 | 0.00 | 37 | 1008.8 |
| 20260505183936 | 75 | 196 | 7.0 | 28.0 | 0.00 | 0.00 | 0.00 | 36 | 1008.6 |
| 20260505182930 | 75 | 172 | 10.0 | 35.0 | 0.00 | 0.00 | 0.00 | 34 | 1008.7 |
| 20260505182430 | 75 | 191 | 8.0 | 35.0 | 0.00 | 0.00 | 0.00 | 36 | 1009.1 |
| 20260505181932 | 75 | 173 | 10.0 | 24.0 | 0.00 | 0.00 | 0.00 | 34 | 1008.9 |
| 20260505181430 | 74 | 177 | 15.0 | 23.0 | 0.00 | 0.00 | 0.00 | 34 | 1009.0 |
| 20260505180931 | 75 | 187 | 11.0 | 28.0 | 0.00 | 0.00 | 0.00 | 34 | 1009.1 |
| 20260505180430 | 74 | 165 | 11.0 | 28.0 | 0.00 | 0.00 | 0.00 | 34 | 1009.0 |
| 20260505175928 | 75 | 223 | 3.0 | 21.0 | 0.00 | 0.00 | 0.00 | 37 | 1009.2 |
| 20260505175426 | 75 | 259 | 6.0 | 21.0 | 0.00 | 0.00 | 0.00 | 35 | 1009.2 |
| 20260505173926 | 75 | 232 | 11.0 | 22.0 | 0.00 | 0.00 | 0.00 | 33 | 1009.6 |
| 20260505172427 | 74 | 180 | 6.0 | 21.0 | 0.00 | 0.00 | 0.00 | 33 | 1009.7 |
| 20260505171925 | 75 | 189 | 11.0 | 23.0 | 0.00 | 0.00 | 0.00 | 33 | 1009.8 |
| 20260505171425 | 75 | 186 | 10.0 | 23.0 | 0.00 | 0.00 | 0.00 | 32 | 1009.6 |
| 20260505170924 | 74 | 185 | 10.0 | 22.0 | 0.00 | 0.00 | 0.00 | 32 | 1009.6 |
| 20260505170425 | 74 | 198 | 9.0 | 21.0 | 0.00 | 0.00 | 0.00 | 34 | 1009.6 |
| 20260505165925 | 74 | 177 | 9.0 | 22.0 | 0.00 | 0.00 | 0.00 | 34 | 1009.7 |
| 20260505165425 | 74 | 274 | 11.0 | 22.0 | 0.00 | 0.00 | 0.00 | 34 | 1009.7 |
| 20260505164924 | 74 | 180 | 9.0 | 21.0 | 0.00 | 0.00 | 0.00 | 35 | 1009.9 |
| 20260505164424 | 74 | 243 | 4.0 | 22.0 | 0.00 | 0.00 | 0.00 | 34 | 1009.7 |
| 20260505163925 | 74 | 236 | 19.0 | 22.0 | 0.00 | 0.00 | 0.00 | 33 | 1009.7 |
| 20260505163423 | 74 | 154 | 7.0 | 22.0 | 0.00 | 0.00 | 0.00 | 34 | 1009.5 |
| 20260505162419 | 73 | 182 | 12.0 | 24.0 | 0.00 | 0.00 | 0.00 | 37 | 1009.8 |
| 20260505161917 | 73 | 251 | 13.0 | 24.0 | 0.00 | 0.00 | 0.00 | 35 | 1009.7 |
| 20260505161418 | 74 | 194 | 7.0 | 23.0 | 0.00 | 0.00 | 0.00 | 37 | 1009.8 |
| 20260505160917 | 73 | 228 | 6.0 | 22.0 | 0.00 | 0.00 | 0.00 | 37 | 1009.4 |
| 20260505152907 | 73 | 182 | 5.0 | 19.0 | 0.00 | 0.00 | 0.00 | 44 | 1009.9 |
| 20260505152406 | 73 | 229 | 4.0 | 19.0 | 0.00 | 0.00 | 0.00 | 40 | 1009.7 |
| 20260505151906 | 73 | 227 | 5.0 | 18.0 | 0.00 | 0.00 | 0.00 | 40 | 1009.9 |
| 20260505151405 | 73 | 182 | 7.0 | 15.0 | 0.00 | 0.00 | 0.00 | 41 | 1010.0 |
| 20260505150903 | 73 | 179 | 7.0 | 15.0 | 0.00 | 0.00 | 0.00 | 39 | 1009.8 |
| 20260505150404 | 73 | 239 | 10.0 | 16.0 | 0.00 | 0.00 | 0.00 | 39 | 1009.8 |
| 20260505140359 | 69 | 255 | 6.0 | 19.0 | 0.00 | 0.00 | 0.00 | 47 | 1010.1 |
| 20260505124845 | 61 | 226 | 6.0 | 15.0 | 0.00 | 0.00 | 0.00 | 59 | 1010.1 |
| 20260505124343 | 61 | 276 | 5.0 | 15.0 | 0.00 | 0.00 | 0.00 | 59 | 1010.2 |
| 20260505123342 | 60 | 268 | 5.0 | 18.0 | 0.00 | 0.00 | 0.00 | 61 | 1010.3 |
| 20260505122842 | 59 | 247 | 10.0 | 15.0 | 0.00 | 0.00 | 0.00 | 62 | 1010.3 |
| 20260505122342 | 59 | 204 | 7.0 | 15.0 | 0.00 | 0.00 | 0.00 | 63 | 1010.1 |
| 20260505121337 | 58 | 234 | 7.0 | 14.0 | 0.00 | 0.00 | 0.00 | 65 | 1010.4 |
| 20260505120336 | 57 | 285 | 6.0 | 17.0 | 0.00 | 0.00 | 0.00 | 67 | 1010.3 |
| 20260505115834 | 56 | 261 | 5.0 | 15.0 | 0.00 | 0.00 | 0.00 | 69 | 1010.4 |
| 20260505115324 | 56 | 244 | 2.0 | 14.0 | 0.00 | 0.00 | 0.00 | 69 | 1010.5 |
| 20260505114823 | 55 | 221 | 4.0 | 13.0 | 0.00 | 0.00 | 0.00 | 70 | 1010.5 |
| 20260505114321 | 55 | 226 | 6.0 | 13.0 | 0.00 | 0.00 | 0.00 | 71 | 1010.6 |
| 20260505113817 | 55 | 248 | 7.0 | 13.0 | 0.00 | 0.00 | 0.00 | 71 | 1010.6 |
| 20260505113316 | 54 | 242 | 9.0 | 13.0 | 0.00 | 0.00 | 0.00 | 72 | 1010.6 |
| 20260505112814 | 54 | 250 | 6.0 | 13.0 | 0.00 | 0.00 | 0.00 | 73 | 1010.6 |
| 20260505112313 | 53 | 241 | 7.0 | 11.0 | 0.00 | 0.00 | 0.00 | 74 | 1010.6 |
| 20260505111811 | 53 | 253 | 5.0 | 11.0 | 0.00 | 0.00 | 0.00 | 74 | 1010.6 |
| 20260505111311 | 53 | 232 | 5.0 | 10.0 | 0.00 | 0.00 | 0.00 | 75 | 1010.5 |
| 20260505110824 | 52 | 238 | 4.0 | 11.0 | 0.00 | 0.00 | 0.00 | 75 | 1010.5 |
| 20260505110326 | 52 | 258 | 4.0 | 11.0 | 0.00 | 0.00 | 0.00 | 75 | 1010.4 |
| 20260505101807 | 49 | 199 | 1.0 | 8.0 | 0.00 | 0.00 | 0.00 | 80 | 1010.2 |
| 20260505101307 | 49 | 78 | 2.0 | 8.0 | 0.00 | 0.00 | 0.00 | 81 | 1010.3 |
| 20260505100802 | 48 | 207 | 4.0 | 6.0 | 0.00 | 0.00 | 0.00 | 82 | 1010.2 |
| 20260505100300 | 48 | 187 | 4.0 | 7.0 | 0.00 | 0.00 | 0.00 | 81 | 1010.0 |
| 20260505095801 | 48 | 179 | 4.0 | 7.0 | 0.00 | 0.00 | 0.00 | 82 | 1010.1 |
| 20260505094759 | 48 | 176 | 3.0 | 9.0 | 0.00 | 0.00 | 0.00 | 82 | 1010.0 |
| 20260505094259 | 48 | 211 | 2.0 | 9.0 | 0.00 | 0.00 | 0.00 | 82 | 1009.8 |
| 20260505093759 | 47 | 177 | 5.0 | 9.0 | 0.00 | 0.00 | 0.00 | 83 | 1009.8 |
| 20260505092801 | 48 | 285 | 2.0 | 9.0 | 0.00 | 0.00 | 0.00 | 83 | 1009.7 |
| 20260505092259 | 47 | 167 | 2.0 | 9.0 | 0.00 | 0.00 | 0.00 | 83 | 1009.9 |
| 20260505090758 | 46 | 283 | 3.0 | 7.0 | 0.00 | 0.00 | 0.00 | 85 | 1009.5 |
| 20260505085255 | 46 | 231 | 2.0 | 7.0 | 0.00 | 0.00 | 0.00 | 87 | 1009.3 |
| 20260505084752 | 46 | 192 | 2.0 | 7.0 | 0.00 | 0.00 | 0.00 | 88 | 1009.5 |
| 20260505084241 | 46 | 265 | 3.0 | 6.0 | 0.00 | 0.00 | 0.00 | 88 | 1009.4 |
| 20260505083740 | 46 | 277 | 2.0 | 6.0 | 0.00 | 0.00 | 0.00 | 89 | 1009.5 |
| 20260505082736 | 45 | 248 | 4.0 | 4.0 | 0.00 | 0.00 | 0.00 | 92 | 1009.6 |
| 20260505082236 | 44 | 253 | 2.0 | 3.0 | 0.00 | 0.00 | 0.00 | 92 | 1009.5 |
| 20260505081736 | 44 | 302 | 2.0 | 3.0 | 0.00 | 0.00 | 0.00 | 93 | 1009.4 |
| 20260505080734 | 44 | 265 | 0.0 | 3.0 | 0.00 | 0.00 | 0.00 | 94 | 1009.6 |
| 20260505080232 | 44 | 184 | 1.0 | 4.0 | 0.00 | 0.00 | 0.00 | 94 | 1009.7 |
| 20260505075732 | 43 | 196 | 3.0 | 4.0 | 0.00 | 0.00 | 0.00 | 93 | 1010.0 |
| 20260505075232 | 43 | 116 | 3.0 | 4.0 | 0.00 | 0.00 | 0.00 | 93 | 1009.9 |
| 20260505074730 | 44 | 129 | 3.0 | 4.0 | 0.00 | 0.00 | 0.00 | 93 | 1010.1 |
| 20260505074220 | 44 | 207 | 2.0 | 3.0 | 0.00 | 0.00 | 0.00 | 93 | 1010.1 |
| 20260505073721 | 44 | 305 | 1.0 | 3.0 | 0.00 | 0.00 | 0.00 | 92 | 1010.1 |
| 20260505072719 | 44 | 206 | 0.0 | 2.0 | 0.00 | 0.00 | 0.00 | 92 | 1009.8 |
| 20260505072218 | 44 | 122 | 0.0 | 3.0 | 0.00 | 0.00 | 0.00 | 92 | 1009.5 |
| 20260505071717 | 44 | 100 | 2.0 | 3.0 | 0.00 | 0.00 | 0.00 | 91 | 1009.3 |
| 20260505071217 | 44 | 301 | 0.0 | 4.0 | 0.00 | 0.00 | 0.00 | 92 | 1009.5 |
| 20260505070715 | 44 | 307 | 2.0 | 4.0 | 0.00 | 0.00 | 0.00 | 91 | 1009.3 |
| 20260505070214 | 44 | 304 | 3.0 | 3.0 | 0.00 | 0.00 | 0.00 | 92 | 1009.2 |
| 20260505065715 | 44 | 73 | 0.0 | 2.0 | 0.00 | 0.00 | 0.00 | 91 | 1009.1 |
| 20260505064714 | 45 | 257 | 0.0 | 4.0 | 0.00 | 0.00 | 0.00 | 91 | 1009.0 |
| 20260505064214 | 44 | 297 | 0.0 | 4.0 | 0.00 | 0.00 | 0.00 | 91 | 1009.0 |
| 20260505063714 | 44 | 295 | 3.0 | 4.0 | 0.00 | 0.00 | 0.00 | 91 | 1009.2 |
| 20260505063216 | 44 | 299 | 3.0 | 4.0 | 0.00 | 0.00 | 0.00 | 91 | 1009.0 |
| 20260505062715 | 44 | 256 | 1.0 | 4.0 | 0.00 | 0.00 | 0.00 | 91 | 1008.7 |
| 20260505062215 | 44 | 302 | 3.0 | 4.0 | 0.00 | 0.00 | 0.00 | 90 | 1008.6 |
| 20260505061713 | 44 | 315 | 2.0 | 4.0 | 0.00 | 0.00 | 0.00 | 90 | 1008.8 |
| 20260505061213 | 45 | 301 | 4.0 | 4.0 | 0.00 | 0.00 | 0.00 | 90 | 1009.0 |
| 20260505060713 | 45 | 89 | 0.0 | 4.0 | 0.00 | 0.00 | 0.00 | 90 | 1008.9 |
| 20260505060213 | 45 | 77 | 0.0 | 7.0 | 0.00 | 0.00 | 0.00 | 90 | 1009.1 |
| 20260505055709 | 45 | 287 | 3.0 | 7.0 | 0.00 | 0.00 | 0.00 | 90 | 1009.6 |
| 20260505055208 | 45 | 300 | 5.0 | 5.0 | 0.00 | 0.00 | 0.00 | 90 | 1009.4 |
| 20260505054707 | 45 | 239 | 2.0 | 4.0 | 0.00 | 0.00 | 0.00 | 90 | 1008.8 |
| 20260505054208 | 45 | 238 | 2.0 | 3.0 | 0.00 | 0.00 | 0.00 | 90 | 1008.9 |
| 20260505053705 | 45 | 306 | 1.0 | 6.0 | 0.00 | 0.00 | 0.00 | 89 | 1009.1 |
| 20260505052704 | 45 | 282 | 3.0 | 7.0 | 0.00 | 0.00 | 0.00 | 89 | 1009.7 |
| 20260505052204 | 45 | 307 | 5.0 | 7.0 | 0.00 | 0.00 | 0.00 | 89 | 1009.4 |
| 20260505051704 | 45 | 314 | 3.0 | 5.0 | 0.00 | 0.00 | 0.00 | 89 | 1009.3 |
| 20260505051203 | 45 | 274 | 3.0 | 6.0 | 0.00 | 0.00 | 0.00 | 88 | 1008.9 |
| 20260505050703 | 45 | 268 | 1.0 | 6.0 | 0.00 | 0.00 | 0.00 | 88 | 1008.8 |
| 20260505050201 | 46 | 235 | 5.0 | 5.0 | 0.00 | 0.00 | 0.00 | 87 | 1008.8 |
| 20260505041655 | 45 | 257 | 4.0 | 5.0 | 0.00 | 0.00 | 0.00 | 82 | 1008.8 |
| 20260505041155 | 45 | 283 | 3.0 | 4.0 | 0.00 | 0.00 | 0.00 | 81 | 1008.6 |
| 20260505040655 | 46 | 275 | 3.0 | 8.0 | 0.00 | 0.00 | 0.00 | 81 | 1008.6 |
| 20260505040154 | 46 | 257 | 4.0 | 8.0 | 0.00 | 0.00 | 0.00 | 79 | 1008.7 |
| 20260505035654 | 46 | 237 | 3.0 | 7.0 | 0.00 | 0.00 | 0.00 | 79 | 1008.8 |
| 20260505035141 | 46 | 236 | 4.0 | 7.0 | 0.00 | 0.00 | 0.00 | 79 | 1008.6 |
| 20260505034642 | 46 | 240 | 5.0 | 6.0 | 0.00 | 0.01 | 0.00 | 80 | 1008.7 |
| 20260505034144 | 46 | 244 | 4.0 | 8.0 | 0.00 | 0.01 | 0.00 | 80 | 1008.6 |
| 20260505033641 | 46 | 275 | 3.0 | 8.0 | 0.00 | 0.01 | 0.00 | 80 | 1008.5 |
| 20260505033142 | 46 | 267 | 5.0 | 8.0 | 0.00 | 0.01 | 0.00 | 79 | 1008.7 |
| 20260505032640 | 46 | 232 | 5.0 | 8.0 | 0.00 | 0.01 | 0.00 | 80 | 1008.4 |
| 20260505032139 | 46 | 247 | 4.0 | 8.0 | 0.00 | 0.01 | 0.00 | 80 | 1008.2 |
| 20260505031637 | 46 | 237 | 6.0 | 7.0 | 0.00 | 0.01 | 0.00 | 80 | 1008.2 |
| 20260505031137 | 46 | 279 | 5.0 | 8.0 | 0.00 | 0.01 | 0.00 | 80 | 1008.3 |
| 20260505030637 | 47 | 266 | 4.0 | 11.0 | 0.00 | 0.01 | 0.00 | 80 | 1008.4 |
| 20260505030138 | 47 | 243 | 6.0 | 11.0 | 0.00 | 0.02 | 0.00 | 80 | 1008.3 |
| 20260505025137 | 47 | 240 | 8.0 | 14.0 | 0.00 | 0.02 | 0.02 | 79 | 1008.0 |
| 20260505024638 | 47 | 236 | 8.0 | 14.0 | 0.00 | 0.04 | 0.02 | 78 | 1008.1 |
| 20260505024137 | 47 | 268 | 9.0 | 11.0 | 0.00 | 0.05 | 0.02 | 78 | 1007.9 |
| 20260505023638 | 48 | 252 | 8.0 | 11.0 | 0.00 | 0.06 | 0.02 | 78 | 1008.0 |
| 20260505023135 | 48 | 248 | 9.0 | 11.0 | 0.00 | 0.07 | 0.02 | 77 | 1008.0 |
| 20260505022130 | 48 | 256 | 4.0 | 16.0 | 0.00 | 0.09 | 0.02 | 77 | 1007.9 |
| 20260505021630 | 48 | 256 | 7.0 | 16.0 | 0.00 | 0.09 | 0.02 | 77 | 1007.9 |
| 20260505021131 | 48 | 249 | 8.0 | 15.0 | 0.00 | 0.11 | 0.02 | 77 | 1007.9 |
| 20260505020129 | 48 | 265 | 4.0 | 13.0 | 0.00 | 0.13 | 0.02 | 77 | 1007.7 |
| 20260505015628 | 48 | 249 | 5.0 | 14.0 | 0.00 | 0.13 | 0.02 | 77 | 1007.7 |
| 20260505015126 | 48 | 239 | 7.0 | 15.0 | 0.00 | 0.16 | 0.02 | 77 | 1007.9 |
| 20260505014625 | 48 | 228 | 9.0 | 15.0 | 0.00 | 0.17 | 0.02 | 77 | 1007.9 |
| 20260505014123 | 48 | 265 | 8.0 | 16.0 | 0.00 | 0.18 | 0.02 | 77 | 1007.6 |
| 20260505013623 | 48 | 205 | 13.0 | 16.0 | 0.00 | 0.19 | 0.02 | 78 | 1007.6 |
| 20260505013124 | 48 | 231 | 12.0 | 15.0 | 0.00 | 0.20 | 0.02 | 78 | 1007.5 |
| 20260505012623 | 48 | 232 | 9.0 | 15.0 | 0.00 | 0.23 | 0.02 | 78 | 1007.5 |
| 20260505012122 | 48 | 229 | 10.0 | 14.0 | 0.00 | 0.25 | 0.02 | 78 | 1007.5 |
| 20260505011619 | 48 | 239 | 8.0 | 17.0 | 0.00 | 0.26 | 0.02 | 77 | 1007.4 |
| 20260505011117 | 48 | 240 | 8.0 | 17.0 | 0.00 | 0.27 | 0.02 | 77 | 1007.1 |
| 20260505010615 | 48 | 260 | 5.0 | 15.0 | 0.00 | 0.29 | 0.02 | 77 | 1007.1 |
| 20260505010127 | 48 | 258 | 3.0 | 15.0 | 0.00 | 0.30 | 0.02 | 77 | 1007.1 |
| 20260505005613 | 48 | 248 | 8.0 | 15.0 | 0.00 | 0.31 | 0.02 | 76 | 1007.1 |
| 20260505005109 | 48 | 249 | 11.0 | 16.0 | 0.00 | 0.33 | 0.02 | 76 | 1007.2 |
| 20260505004609 | 49 | 255 | 6.0 | 16.0 | 0.00 | 0.34 | 0.02 | 76 | 1007.0 |
| 20260505003107 | 49 | 236 | 6.0 | 14.0 | 0.00 | 0.40 | 0.02 | 76 | 1006.4 |
| 20260505002606 | 49 | 246 | 7.0 | 15.0 | 0.00 | 0.41 | 0.02 | 75 | 1006.5 |
| 20260505002106 | 49 | 234 | 6.0 | 15.0 | 0.00 | 0.43 | 0.02 | 75 | 1006.6 |